AST,Max TemperatureF,Mean TemperatureF,Min TemperatureF,Max Dew PointF,MeanDew PointF,Min DewpointF,Max Humidity, Mean Humidity, Min Humidity, Max Sea Level PressureIn, Mean Sea Level PressureIn, Min Sea Level PressureIn, Max VisibilityMiles, Mean VisibilityMiles, Min VisibilityMiles, Max Wind SpeedMPH, Mean Wind SpeedMPH, Max Gust SpeedMPH,PrecipitationIn, CloudCover, Events, WindDirDegrees
2013-9-1,90,86,82,77,75,73,79,69,54,29.98,29.94,29.89,16,8,6,17,13,,0.00,1,,67
2013-9-2,90,86,82,75,73,72,74,66,48,29.95,29.90,29.86,19,8,6,16,13,,0.02,3,Rain,78
2013-9-3,86,82,78,77,74,72,84,74,61,29.92,29.88,29.83,19,8,2,20,13,29,0.43,3,Rain,81
2013-9-4,87,82,78,79,76,72,84,78,67,29.98,29.90,29.83,19,7,5,16,11,23,0.08,4,Rain-Thunderstorm,109
2013-9-5,84,82,80,79,77,75,84,80,72,29.98,29.93,29.86,16,8,6,17,11,,0.02,3,Rain-Thunderstorm,129
2013-9-6,86,83,80,77,76,73,84,79,71,30.01,29.94,29.89,16,6,5,18,12,,0.00,3,Rain-Thunderstorm,122
2013-9-7,88,85,82,77,75,72,84,75,64,29.99,29.95,29.92,19,7,6,14,10,,0.00,2,,132
2013-9-8,86,84,82,77,77,75,84,75,34,29.99,29.95,29.92,19,9,6,15,11,,0.00,1,,128
2013-9-9,89,86,82,75,74,70,79,70,52,30.03,29.98,29.95,16,7,6,13,8,,0.00,1,,104
2013-9-10,89,85,81,75,73,72,74,67,52,30.05,29.99,29.95,19,7,6,15,11,,0.20,2,Rain,85
2013-9-11,90,84,78,77,74,70,89,72,52,30.01,29.95,29.89,6,6,5,15,11,,0.24,1,Rain,61
2013-9-12,90,85,80,77,74,70,89,70,49,29.89,29.83,29.80,19,8,5,16,11,,0.04,2,Rain,63
2013-9-13,89,84,79,75,73,70,79,68,44,29.85,29.78,29.71,19,7,6,14,9,,0.01,3,Rain,75
2013-9-14,88,84,80,77,75,73,84,71,58,29.97,29.88,29.80,6,6,6,9,7,,0.00,2,Rain,114
2013-9-15,88,85,82,78,77,75,84,75,65,30.03,29.98,29.92,19,7,6,10,7,,0.16,2,,114
2013-9-16,89,85,81,77,75,73,84,72,58,30.01,29.96,29.92,19,7,6,14,10,,0.08,2,Rain,95
2013-9-17,89,85,81,77,75,73,79,71,57,29.98,29.93,29.89,19,7,0,94,13,,0.02,3,,94
2013-9-18,87,84,81,77,76,75,79,75,65,29.98,29.92,29.89,16,7,6,14,9,,0.02,2,,112
2013-9-19,87,84,80,77,76,72,84,76,66,30.01,29.96,29.92,16,7,4,10,6,,0.03,2,Rain,131
2013-9-20,89,86,82,77,75,73,79,72,58,29.98,29.93,29.89,19,8,6,9,6,,0.00,1,,144
2013-9-21,90,86,82,76,75,73,79,70,55,29.94,29.89,29.83,16,7,6,6,2,,0.00,1,,168
2013-9-22,88,85,82,75,75,73,79,70,58,30.01,29.95,29.89,16,9,6,9,6,,0.00,2,,122
2013-9-23,89,84,80,77,76,74,84,74,62,30.04,30.00,29.95,19,7,1,12,9,22,0.16,3,Rain,111
2013-9-24,89,86,82,75,74,72,74,68,50,30.04,29.98,29.92,19,8,6,90,11,,0.39,2,Rain,108
2013-9-25,87,82,76,75,74,72,84,73,61,29.98,29.94,29.89,19,7,2,34,8,24,0.39,2,Rain,110
2013-9-26,86,83,80,76,74,73,79,70,61,29.96,29.92,29.86,19,7,6,14,7,,0.00,2,,121
2013-9-27,87,83,79,75,75,73,79,71,60,29.99,29.93,29.89,19,7,6,12,7,,0.03,2,Rain,124
2013-9-28,87,83,79,79,77,75,84,76,65,30.01,29.96,29.92,19,8,6,14,7,23,0.03,2,Rain,126
2013-9-29,88,85,82,77,76,74,79,73,59,30.01,29.97,29.92,16,7,6,14,9,,0.00,2,Rain,114
2013-9-30,88,86,83,78,76,75,79,72,61,30.04,29.99,29.95,19,7,6,12,9,,0.00,2,,109